Location: Washington
(38.8950°N, 77.0367°W)
Time: 21:51:40
(UTC-04:00)

N. Korean satellite - Visible Passes

Search period start: 26 September 2016 00:00
Search period end: 06 October 2016 00:00
Orbit: 464 x 523 km, 97.2° (Epoch: 26 September)

Date Brightness Start Highest point End Pass type
(mag) Time Alt. Az. Time Alt. Az. Time Alt. Az.
26 Sep 7.9 20:06:24 10° S 20:09:41 41° W 20:13:00 10° NNW visible
27 Sep 6.5 19:44:28 10° SSE 19:47:56 87° W 19:51:26 10° NNW visible
28 Sep 6.8 19:22:55 10° SSE 19:26:14 44° ENE 19:29:35 10° N visible
29 Sep 9.5 20:35:49 10° SW 20:38:12 17° W 20:40:35 10° NW visible
30 Sep 8.3 20:13:10 10° SSW 20:16:19 33° W 20:19:32 10° NNW visible
01 Oct 6.8 19:51:05 10° S 19:54:31 69° W 19:58:01 10° NNW visible
02 Oct 6.5 19:29:22 10° SSE 19:32:46 56° ENE 19:36:14 10° N visible
03 Oct 7.4 19:08:04 10° SE 19:11:05 28° ENE 19:14:08 10° NNE visible
03 Oct 9.7 20:42:50 10° SW 20:44:46 14° W 20:46:44 10° WNW visible
04 Oct 8.7 20:19:52 10° SSW 20:22:51 27° W 20:25:54 10° NW visible
05 Oct 7.3 19:57:35 10° S 20:01:00 54° W 20:04:29 10° NNW visible
